Time,TemperatureF,DewpointF,PressureIn,WindDirection,WindDirectionDegrees,WindSpeedMPH,WindSpeedGustMPH,Humidity,HourlyPrecipIn,Conditions,Clouds,dailyrainin,SoftwareType,DateUTC
2013-03-27 00:01:00,30.0,27.0,29.87,NE,37,3.0,8.0,88,0.00,,,0.00,,2013-03-27 00:01:00,
2013-03-27 00:12:00,30.0,27.0,29.87,NE,37,3.0,8.0,88,0.00,,,0.00,,2013-03-27 00:12:00,
2013-03-27 00:22:00,30.0,27.0,29.87,NE,42,3.0,10.0,88,0.00,,,0.00,,2013-03-27 00:22:00,
2013-03-27 00:32:00,30.0,27.0,29.87,NE,42,3.0,10.0,88,0.00,,,0.00,,2013-03-27 00:32:00,
2013-03-27 00:42:00,30.0,27.0,29.87,NE,42,3.0,10.0,88,0.00,,,0.00,,2013-03-27 00:42:00,
2013-03-27 00:52:00,30.0,27.0,29.87,NE,42,0.0,4.0,89,0.00,,,0.00,,2013-03-27 00:52:00,
2013-03-27 01:02:00,30.0,27.0,29.87,ENE,58,0.0,6.0,89,0.00,,,0.00,,2013-03-27 01:02:00,
2013-03-27 01:12:00,30.0,27.0,29.87,ENE,58,0.0,6.0,89,0.00,,,0.00,,2013-03-27 01:12:00,
2013-03-27 01:22:00,30.0,27.0,29.87,NE,51,3.0,6.0,89,0.00,,,0.00,,2013-03-27 01:22:00,
2013-03-27 01:32:00,30.0,27.0,29.86,ENE,58,3.0,6.0,89,0.00,,,0.00,,2013-03-27 01:32:00,
2013-03-27 01:42:00,30.0,27.0,29.86,ENE,58,3.0,6.0,89,0.00,,,0.00,,2013-03-27 01:42:00,
2013-03-27 01:52:00,30.0,27.0,29.86,ENE,58,3.0,6.0,89,0.00,,,0.00,,2013-03-27 01:52:00,
2013-03-27 02:02:00,31.0,28.0,29.86,NE,56,3.0,8.0,88,0.00,,,0.00,,2013-03-27 02:02:00,
2013-03-27 02:12:00,31.0,28.0,29.86,NE,56,3.0,8.0,88,0.00,,,0.00,,2013-03-27 02:12:00,
2013-03-27 02:22:00,30.0,27.0,29.85,NE,46,3.0,12.0,88,0.00,,,0.00,,2013-03-27 02:22:00,
2013-03-27 02:32:00,30.0,27.0,29.85,NE,51,3.0,10.0,88,0.00,,,0.00,,2013-03-27 02:32:00,
2013-03-27 02:42:00,30.0,27.0,29.85,NE,51,3.0,10.0,88,0.00,,,0.00,,2013-03-27 02:42:00,
2013-03-27 02:52:00,30.0,27.0,29.85,NE,40,0.0,8.0,89,0.00,,,0.00,,2013-03-27 02:52:00,
2013-03-27 03:02:00,29.0,26.0,29.85,NE,43,0.0,6.0,89,0.00,,,0.00,,2013-03-27 03:02:00,
2013-03-27 03:11:00,29.0,26.0,29.85,NE,43,0.0,6.0,89,0.00,,,0.00,,2013-03-27 03:11:00,
2013-03-27 03:22:00,29.0,26.0,29.85,NE,38,0.0,8.0,89,0.00,,,0.00,,2013-03-27 03:22:00,
2013-03-27 03:32:00,29.0,26.0,29.85,NE,40,0.0,6.0,89,0.00,,,0.00,,2013-03-27 03:32:00,
2013-03-27 03:42:00,29.0,26.0,29.85,NE,40,0.0,6.0,89,0.00,,,0.00,,2013-03-27 03:42:00,
2013-03-27 03:52:00,29.0,26.0,29.85,ENE,66,0.0,6.0,89,0.00,,,0.00,,2013-03-27 03:52:00,
2013-03-27 04:02:00,29.0,26.0,29.85,ENE,57,0.0,10.0,89,0.00,,,0.00,,2013-03-27 04:02:00,
2013-03-27 04:12:00,29.0,26.0,29.85,ENE,57,0.0,10.0,89,0.00,,,0.00,,2013-03-27 04:12:00,
2013-03-27 04:22:00,29.0,26.0,29.85,NE,56,0.0,6.0,89,0.00,,,0.00,,2013-03-27 04:22:00,
2013-03-27 04:32:00,30.0,27.0,29.85,NE,56,0.0,6.0,87,0.00,,,0.00,,2013-03-27 04:32:00,
2013-03-27 04:42:00,30.0,27.0,29.85,NE,56,0.0,6.0,87,0.00,,,0.00,,2013-03-27 04:42:00,
2013-03-27 04:52:00,30.0,26.0,29.86,East,80,0.0,4.0,86,0.00,,,0.00,,2013-03-27 04:52:00,
2013-03-27 05:02:00,30.0,26.0,29.86,East,80,0.0,4.0,86,0.00,,,0.00,,2013-03-27 05:02:00,
2013-03-27 05:12:00,30.0,26.0,29.86,East,80,0.0,4.0,86,0.00,,,0.00,,2013-03-27 05:12:00,
2013-03-27 05:22:00,30.0,26.0,29.86,NE,47,0.0,4.0,85,0.00,,,0.00,,2013-03-27 05:22:00,
2013-03-27 05:32:00,30.0,25.0,29.86,ENE,70,3.0,10.0,83,0.00,,,0.00,,2013-03-27 05:32:00,
2013-03-27 05:42:00,30.0,25.0,29.86,ENE,70,3.0,10.0,83,0.00,,,0.00,,2013-03-27 05:42:00,
2013-03-27 05:52:00,30.0,25.0,29.86,ENE,73,0.0,8.0,82,0.00,,,0.00,,2013-03-27 05:52:00,
2013-03-27 06:02:00,31.0,26.0,29.86,ENE,59,0.0,6.0,81,0.00,,,0.00,,2013-03-27 06:02:00,
2013-03-27 06:11:00,31.0,26.0,29.86,ENE,59,0.0,6.0,81,0.00,,,0.00,,2013-03-27 06:11:00,
2013-03-27 06:22:00,31.0,26.0,29.86,NE,56,3.0,8.0,80,0.00,,,0.00,,2013-03-27 06:22:00,
2013-03-27 06:32:00,31.0,26.0,29.86,ENE,66,3.0,8.0,80,0.00,,,0.00,,2013-03-27 06:32:00,
2013-03-27 06:42:00,31.0,26.0,29.86,ENE,66,3.0,8.0,80,0.00,,,0.00,,2013-03-27 06:42:00,
2013-03-27 06:52:00,31.0,26.0,29.86,NE,51,0.0,8.0,80,0.00,,,0.00,,2013-03-27 06:52:00,
2013-03-27 07:01:00,31.0,25.0,29.86,NE,56,3.0,12.0,79,0.00,,,0.00,,2013-03-27 07:01:00,
2013-03-27 07:12:00,31.0,25.0,29.86,NE,56,3.0,12.0,79,0.00,,,0.00,,2013-03-27 07:12:00,
2013-03-27 07:22:00,31.0,25.0,29.86,East,83,3.0,8.0,79,0.00,,,0.00,,2013-03-27 07:22:00,
2013-03-27 07:32:00,32.0,27.0,29.86,ENE,57,0.0,8.0,80,0.00,,,0.00,,2013-03-27 07:32:00,
2013-03-27 07:42:00,32.0,27.0,29.86,ENE,57,0.0,8.0,80,0.00,,,0.00,,2013-03-27 07:42:00,
2013-03-27 07:53:00,33.0,27.0,29.86,East,82,3.0,8.0,79,0.00,,,0.00,,2013-03-27 07:53:00,
2013-03-27 08:02:00,33.0,27.0,29.86,East,82,3.0,8.0,79,0.00,,,0.00,,2013-03-27 08:02:00,
2013-03-27 08:11:00,33.0,27.0,29.86,East,82,3.0,8.0,79,0.00,,,0.00,,2013-03-27 08:11:00,
2013-03-27 08:21:00,33.0,26.0,29.86,East,99,3.0,10.0,76,0.00,,,0.00,,2013-03-27 08:21:00,
2013-03-27 08:32:00,33.0,26.0,29.86,East,99,3.0,10.0,76,0.00,,,0.00,,2013-03-27 08:32:00,
2013-03-27 08:43:00,33.0,26.0,29.86,East,99,3.0,10.0,76,0.00,,,0.00,,2013-03-27 08:43:00,
2013-03-27 08:52:00,33.0,26.0,29.86,East,99,3.0,10.0,76,0.00,,,0.00,,2013-03-27 08:52:00,
2013-03-27 09:01:00,36.0,28.0,29.86,ENE,57,3.0,10.0,71,0.00,,,0.00,,2013-03-27 09:01:00,
2013-03-27 09:12:00,36.0,28.0,29.86,ENE,57,3.0,10.0,71,0.00,,,0.00,,2013-03-27 09:12:00,
2013-03-27 09:22:00,36.0,28.0,29.86,East,88,6.0,18.0,71,0.00,,,0.00,,2013-03-27 09:22:00,
2013-03-27 09:32:00,36.0,27.0,29.86,ENE,78,6.0,10.0,69,0.00,,,0.00,,2013-03-27 09:32:00,
2013-03-27 09:42:00,36.0,27.0,29.86,ENE,78,6.0,10.0,69,0.00,,,0.00,,2013-03-27 09:42:00,
2013-03-27 09:52:00,36.0,27.0,29.86,East,89,3.0,12.0,69,0.00,,,0.00,,2013-03-27 09:52:00,
2013-03-27 10:02:00,36.0,27.0,29.86,East,89,3.0,12.0,69,0.00,,,0.00,,2013-03-27 10:02:00,
2013-03-27 10:12:00,36.0,27.0,29.86,East,89,3.0,12.0,69,0.00,,,0.00,,2013-03-27 10:12:00,
2013-03-27 10:22:00,36.0,27.0,29.86,ESE,108,6.0,14.0,69,0.00,,,0.00,,2013-03-27 10:22:00,
2013-03-27 10:32:00,36.0,27.0,29.86,ENE,78,6.0,10.0,69,0.00,,,0.00,,2013-03-27 10:32:00,
2013-03-27 10:42:00,36.0,27.0,29.86,ENE,78,6.0,10.0,69,0.00,,,0.00,,2013-03-27 10:42:00,
2013-03-27 10:52:00,36.0,27.0,29.86,ENE,78,6.0,10.0,69,0.00,,,0.00,,2013-03-27 10:52:00,
2013-03-27 11:02:00,36.0,27.0,29.86,East,93,3.0,12.0,69,0.00,,,0.00,,2013-03-27 11:02:00,
2013-03-27 11:11:00,36.0,27.0,29.86,East,93,3.0,12.0,69,0.00,,,0.00,,2013-03-27 11:11:00,
2013-03-27 11:22:00,36.0,27.0,29.86,East,93,3.0,12.0,69,0.00,,,0.00,,2013-03-27 11:22:00,
2013-03-27 11:32:00,37.0,28.0,29.86,East,95,6.0,12.0,69,0.00,,,0.00,,2013-03-27 11:32:00,
2013-03-27 11:42:00,37.0,28.0,29.86,East,95,6.0,12.0,69,0.00,,,0.00,,2013-03-27 11:42:00,
2013-03-27 11:52:00,37.0,28.0,29.85,ENE,76,3.0,10.0,70,0.00,,,0.00,,2013-03-27 11:52:00,
2013-03-27 12:02:00,38.0,29.0,29.86,NE,48,3.0,12.0,70,0.00,,,0.00,,2013-03-27 12:02:00,
2013-03-27 12:11:00,38.0,29.0,29.86,NE,48,3.0,12.0,70,0.00,,,0.00,,2013-03-27 12:11:00,
2013-03-27 12:22:00,38.0,29.0,29.85,ENE,64,3.0,8.0,70,0.00,,,0.00,,2013-03-27 12:22:00,
2013-03-27 12:32:00,38.0,28.0,29.85,ENE,61,6.0,12.0,67,0.00,,,0.00,,2013-03-27 12:32:00,
2013-03-27 12:42:00,38.0,28.0,29.85,ENE,61,6.0,12.0,67,0.00,,,0.00,,2013-03-27 12:42:00,
2013-03-27 12:51:00,38.0,27.0,29.85,ENE,68,3.0,10.0,65,0.00,,,0.00,,2013-03-27 12:51:00,
2013-03-27 13:02:00,39.0,28.0,29.85,ESE,107,3.0,12.0,65,0.00,,,0.00,,2013-03-27 13:02:00,
2013-03-27 13:11:00,39.0,28.0,29.85,ESE,107,3.0,12.0,65,0.00,,,0.00,,2013-03-27 13:11:00,
2013-03-27 13:22:00,40.0,29.0,29.85,East,97,6.0,16.0,64,0.00,,,0.00,,2013-03-27 13:22:00,
2013-03-27 13:32:00,40.0,28.0,29.85,ESE,123,6.0,16.0,61,0.00,,,0.00,,2013-03-27 13:32:00,
2013-03-27 13:42:00,40.0,28.0,29.85,ESE,123,6.0,16.0,61,0.00,,,0.00,,2013-03-27 13:42:00,
2013-03-27 13:52:00,41.0,28.0,29.85,ENE,67,6.0,16.0,59,0.00,,,0.00,,2013-03-27 13:52:00,
2013-03-27 14:01:00,40.0,28.0,29.84,East,82,3.0,12.0,62,0.00,,,0.00,,2013-03-27 14:01:00,
2013-03-27 14:11:00,40.0,28.0,29.84,East,82,3.0,12.0,62,0.00,,,0.00,,2013-03-27 14:11:00,
2013-03-27 14:21:00,40.0,28.0,29.85,NE,49,6.0,8.0,63,0.00,,,0.00,,2013-03-27 14:21:00,
2013-03-27 14:32:00,39.0,28.0,29.85,ENE,58,3.0,14.0,64,0.00,,,0.00,,2013-03-27 14:32:00,
2013-03-27 14:42:00,39.0,28.0,29.85,ENE,58,3.0,14.0,64,0.00,,,0.00,,2013-03-27 14:42:00,
2013-03-27 14:52:00,39.0,28.0,29.85,ENE,58,3.0,14.0,64,0.00,,,0.00,,2013-03-27 14:52:00,
2013-03-27 15:02:00,39.0,28.0,29.85,ENE,58,3.0,14.0,64,0.00,,,0.00,,2013-03-27 15:02:00,
2013-03-27 15:11:00,39.0,28.0,29.85,ENE,58,3.0,14.0,64,0.00,,,0.00,,2013-03-27 15:11:00,
2013-03-27 15:23:00,38.0,28.0,29.85,ENE,65,3.0,10.0,66,0.00,,,0.00,,2013-03-27 15:23:00,
2013-03-27 15:33:00,38.0,28.0,29.85,ENE,65,3.0,10.0,66,0.00,,,0.00,,2013-03-27 15:33:00,
2013-03-27 15:43:00,38.0,28.0,29.85,ENE,65,3.0,10.0,66,0.00,,,0.00,,2013-03-27 15:43:00,
2013-03-27 15:52:00,37.0,26.0,29.85,ENE,64,3.0,8.0,64,0.00,,,0.00,,2013-03-27 15:52:00,
2013-03-27 16:02:00,37.0,26.0,29.85,NE,49,3.0,6.0,65,0.00,,,0.00,,2013-03-27 16:02:00,
2013-03-27 16:12:00,37.0,26.0,29.85,NE,49,3.0,6.0,65,0.00,,,0.00,,2013-03-27 16:12:00,
2013-03-27 16:22:00,37.0,26.0,29.85,NE,49,3.0,6.0,65,0.00,,,0.00,,2013-03-27 16:22:00,
2013-03-27 16:32:00,37.0,26.0,29.85,NE,37,3.0,10.0,63,0.00,,,0.00,,2013-03-27 16:32:00,
2013-03-27 16:42:00,37.0,26.0,29.85,NE,37,3.0,10.0,63,0.00,,,0.00,,2013-03-27 16:42:00,
2013-03-27 16:52:00,37.0,26.0,29.85,ENE,77,3.0,8.0,63,0.00,,,0.00,,2013-03-27 16:52:00,
2013-03-27 17:02:00,37.0,27.0,29.85,NE,38,3.0,10.0,66,0.00,,,0.00,,2013-03-27 17:02:00,
2013-03-27 17:11:00,37.0,27.0,29.85,NE,38,3.0,10.0,66,0.00,,,0.00,,2013-03-27 17:11:00,
2013-03-27 17:22:00,37.0,27.0,29.85,NE,52,3.0,6.0,66,0.00,,,0.00,,2013-03-27 17:22:00,
2013-03-27 17:32:00,36.0,26.0,29.85,NE,38,3.0,10.0,67,0.00,,,0.00,,2013-03-27 17:32:00,
2013-03-27 17:44:00,36.0,26.0,29.85,NE,38,3.0,10.0,67,0.00,,,0.00,,2013-03-27 17:44:00,
2013-03-27 17:52:00,36.0,26.0,29.85,NE,38,3.0,10.0,67,0.00,,,0.00,,2013-03-27 17:52:00,
2013-03-27 18:02:00,36.0,26.0,29.86,ENE,60,3.0,10.0,68,0.00,,,0.00,,2013-03-27 18:02:00,
2013-03-27 18:12:00,36.0,26.0,29.86,ENE,60,3.0,10.0,68,0.00,,,0.00,,2013-03-27 18:12:00,
2013-03-27 18:22:00,35.0,25.0,29.86,ENE,73,3.0,12.0,67,0.00,,,0.00,,2013-03-27 18:22:00,
2013-03-27 18:32:00,35.0,25.0,29.86,ENE,73,3.0,12.0,67,0.00,,,0.00,,2013-03-27 18:32:00,
2013-03-27 18:42:00,35.0,25.0,29.86,ENE,73,3.0,12.0,67,0.00,,,0.00,,2013-03-27 18:42:00,
2013-03-27 18:52:00,35.0,25.0,29.86,ENE,73,3.0,12.0,67,0.00,,,0.00,,2013-03-27 18:52:00,
2013-03-27 19:21:00,35.0,26.0,29.87,NE,39,3.0,4.0,69,0.00,,,0.00,,2013-03-27 19:21:00,
2013-03-27 19:32:00,34.0,25.0,29.87,NNE,29,0.0,4.0,70,0.00,,,0.00,,2013-03-27 19:32:00,
2013-03-27 19:42:00,34.0,25.0,29.87,NNE,29,0.0,4.0,70,0.00,,,0.00,,2013-03-27 19:42:00,
2013-03-27 19:52:00,34.0,25.0,29.88,NE,52,0.0,6.0,70,0.00,,,0.00,,2013-03-27 19:52:00,
2013-03-27 20:02:00,34.0,25.0,29.88,East,81,3.0,10.0,69,0.00,,,0.00,,2013-03-27 20:02:00,
2013-03-27 20:11:00,34.0,25.0,29.88,East,81,3.0,10.0,69,0.00,,,0.00,,2013-03-27 20:11:00,
2013-03-27 20:22:00,34.0,25.0,29.88,ENE,63,3.0,12.0,69,0.00,,,0.00,,2013-03-27 20:22:00,
2013-03-27 20:32:00,34.0,25.0,29.88,East,90,0.0,6.0,70,0.00,,,0.00,,2013-03-27 20:32:00,
2013-03-27 20:42:00,34.0,25.0,29.88,East,90,0.0,6.0,70,0.00,,,0.00,,2013-03-27 20:42:00,
2013-03-27 20:52:00,33.0,25.0,29.88,East,89,3.0,10.0,71,0.00,,,0.00,,2013-03-27 20:52:00,
2013-03-27 21:02:00,33.0,25.0,29.88,East,98,3.0,8.0,71,0.00,,,0.00,,2013-03-27 21:02:00,
2013-03-27 21:12:00,33.0,25.0,29.88,East,98,3.0,8.0,71,0.00,,,0.00,,2013-03-27 21:12:00,
2013-03-27 21:22:00,33.0,25.0,29.88,East,98,3.0,8.0,71,0.00,,,0.00,,2013-03-27 21:22:00,
2013-03-27 21:32:00,33.0,25.0,29.87,ENE,68,0.0,8.0,72,0.00,,,0.00,,2013-03-27 21:32:00,
2013-03-27 21:42:00,33.0,25.0,29.87,ENE,68,0.0,8.0,72,0.00,,,0.00,,2013-03-27 21:42:00,
2013-03-27 21:52:00,33.0,25.0,29.87,ENE,78,0.0,4.0,73,0.00,,,0.00,,2013-03-27 21:52:00,
2013-03-27 22:02:00,33.0,26.0,29.87,NE,42,0.0,6.0,74,0.00,,,0.00,,2013-03-27 22:02:00,
2013-03-27 22:12:00,33.0,26.0,29.87,NE,42,0.0,6.0,74,0.00,,,0.00,,2013-03-27 22:12:00,
2013-03-27 22:23:00,33.0,26.0,29.86,NNE,33,0.0,4.0,75,0.00,,,0.00,,2013-03-27 22:23:00,
2013-03-27 22:32:00,32.0,25.0,29.86,ENE,72,0.0,8.0,75,0.00,,,0.00,,2013-03-27 22:32:00,
2013-03-27 22:42:00,32.0,25.0,29.86,ENE,72,0.0,8.0,75,0.00,,,0.00,,2013-03-27 22:42:00,
2013-03-27 22:52:00,32.0,25.0,29.86,East,79,0.0,6.0,75,0.00,,,0.00,,2013-03-27 22:52:00,
2013-03-27 23:02:00,32.0,25.0,29.86,ENE,63,3.0,8.0,76,0.00,,,0.00,,2013-03-27 23:02:00,
2013-03-27 23:22:00,32.0,25.0,29.86,ENE,63,3.0,8.0,76,0.00,,,0.00,,2013-03-27 23:22:00,
2013-03-27 23:32:00,32.0,26.0,29.86,NE,38,3.0,8.0,79,0.00,,,0.00,,2013-03-27 23:32:00,
2013-03-27 23:42:00,32.0,26.0,29.86,NE,38,3.0,8.0,79,0.00,,,0.00,,2013-03-27 23:42:00,
2013-03-27 23:52:00,32.0,26.0,29.86,NE,38,3.0,10.0,79,0.00,,,0.00,,2013-03-27 23:52:00,